Simultaneous Nadir Overpasses (SNOs) Predictions

Prediction of SNOs between FY3D and LANDSAT-8 Satellite Orbit:

Table of predicted SNOs for the next 14.0 days since TLE Epoch: 12/28/2024
Index Date (FY3D) Time (FY3D) Lat,Lon (FY3D) SZA (FY3D ) Date (LANDSAT-8) Time (LANDSAT-8) Lat,Lon (LANDSAT-8) SZA (LANDSAT-8 ) Distance(km) Time Diff (sec)
1 12/30/2024 00:01:59 75.22,-174.70 98.34 12/30/2024 00:02:43 75.21,-174.67 98.33 1.18 44
2 12/30/2024 00:52:41 -75.14, -7.15 81.74 12/30/2024 00:52:12 -75.13, -7.24 81.75 2.49 29
3 01/01/2025 16:18:56 75.21, -58.85 98.12 01/01/2025 16:19:10 75.18, -58.85 98.09 2.64 14
4 01/01/2025 17:09:38 -75.13, 108.72 81.97 01/01/2025 17:08:39 -75.11, 108.59 81.99 3.91 59
5 01/04/2025 07:45:07 -75.22,-110.37 82.14 01/04/2025 07:46:09 -75.24,-110.45 82.12 3.26 62
6 01/04/2025 08:35:52 75.17, 57.10 97.81 01/04/2025 08:35:36 75.16, 56.97 97.80 3.68 16
7 01/07/2025 00:02:03 -75.24, 5.41 82.44 01/07/2025 00:02:33 -75.22, 5.39 82.46 2.11 30
8 01/07/2025 00:52:48 75.19, 172.86 97.51 01/07/2025 00:51:59 75.18, 172.94 97.50 2.54 49
9 01/09/2025 15:28:16 75.27, -46.19 97.23 01/09/2025 15:29:28 75.26, -46.22 97.22 1.26 72
10 01/09/2025 16:18:59 -75.22, 121.28 82.83 01/09/2025 16:18:57 -75.20, 121.23 82.86 3.17 2



Historial Predications of SNOs between FY3D and LANDSAT-8
